Location: Beuvrequen
(50.8014°N, 1.6652°E)
Time: 03:22:17
(UTC+00:00)

Lacrosse 4 Rocket - Pass Details

Date: 06 June 2022
Orbit: 541 x 611 km, 68.0° (Epoch: 04 July)

Event Time Altitude Azimuth Distance (km) Brightness Sun altitude
Exits shadow 02:09:18 15° 223° (SW) 1,598 3.0 -10.6°
Maximum altitude 02:12:47 72° 306° (NW) 599 1.5 -10.3°
Drops below altitude 10° 02:16:55 10° 32° (NNE) 1,851 5.7 -9.9°
Sets 02:19:08 0° 34° (NE) 2,740 7.3 -9.7°
